Wind_Speed
37 36 45 42 42 37 34 30 34 46 35 34 34 34 37 36 30 22 25 22 23 21 22 25 32 32 26 22 23 25 26 25 23 21 13 16 21 20 19 17 16 15 14 11
40 51 44 39 38 38 37 35 37 40 37 33 35 40 37 32 25 24 22 26 23 27 27 25 26 23 23 21 24 24 22 22 22 18 11 14 20 21 20 18 15 13 11 11
55 43 43 43 40 38 40 39 36 38 33 36 38 41 33 16 17 21 25 25 26 29 31 26 23 15 19 20 22 22 19 20 19 15 11 14 21 24 21 15 12 12 11 8
56 52 22 33 51 40 43 38 40 33 35 25 19 15 28 22 21 17 23 24 28 33 19 16 16 14 14 18 21 19 15 19 16 12 10 12 18 19 17 15 11 9 11 2
54 43 56 43 38 37 43 32 35 31 37 36 36 21 33 24 29 26 29 26 25 11 9 9 10 13 16 19 18 13 16 16 13 9 9 10 16 17 16 14 16 10 11 1
45 40 34 45 45 31 23 32 32 33 36 20 38 29 42 31 30 26 14 17 11 8 6 8 10 14 16 16 9 11 15 14 11 6 6 9 14 14 15 13 17 10 8 1
36 42 36 25 41 39 33 32 11 8 9 12 28 21 27 31 23 11 14 13 8 7 6 7 10 11 12 7 8 12 11 12 7 4 5 9 12 12 13 13 17 10 5 4
39 25 45 43 39 36 45 39 19 7 6 5 17 10 31 11 13 18 15 15 6 6 8 10 10 11 9 5 9 10 8 8 4 2 4 8 9 10 12 14 12 9 6 9
33 32 12 43 41 40 42 41 44 30 19 4 14 24 24 29 21 25 23 13 8 8 7 6 8 6 3 8 8 7 5 3 0 1 5 8 6 9 14 14 10 10 8 10
16 19 37 26 33 48 53 31 29 19 10 6 6 14 21 11 19 24 17 10 6 7 4 4 2 2 6 5 4 5 3 1 0 2 6 5 7 11 14 15 13 12 9 9
44 29 4 27 36 52 43 40 32 29 29 8 3 19 34 20 25 25 14 7 9 5 3 3 3 5 5 4 1 3 2 1 1 3 4 5 7 9 12 12 13 10 8 10
61 24 36 35 16 34 45 42 41 29 10 18 22 28 20 17 28 23 14 12 9 5 4 3 1 2 6 6 2 3 1 1 1 3 4 3 6 6 8 11 9 10 12 14
40 52 26 25 33 26 36 48 43 41 30 27 14 24 23 17 26 20 18 13 3 6 5 5 2 3 6 7 3 3 1 2 4 3 4 4 7 4 8 11 13 14 18 17
30 41 55 25 32 36 35 40 44 40 29 27 32 27 20 28 25 22 17 10 7 8 4 6 4 5 6 8 4 1 2 3 6 5 6 6 7 6 10 14 16 20 21 22
18 40 46 53 40 26 39 43 46 45 41 32 32 31 26 27 24 21 15 16 13 12 7 8 6 6 7 8 6 3 3 5 8 6 7 8 7 8 17 18 18 21 20 19
0 25 43 48 45 43 25 30 48 46 43 34 31 31 28 25 27 21 18 19 16 12 6 10 9 7 9 8 8 4 5 7 9 8 7 9 7 12 17 18 15 17 16 13
20 7 25 40 45 47 37 34 42 52 46 39 34 36 30 26 31 25 21 21 19 12 8 12 12 9 11 9 9 7 5 7 10 9 8 9 7 14 17 16 19 18 17 16
28 11 10 26 38 8 28 38 30 52 49 43 39 39 34 31 26 29 27 18 19 12 7 11 16 12 11 11 9 9 7 8 9 9 9 11 9 12 16 17 16 16 14 13
19 15 10 13 29 15 19 24 29 50 45 45 38 34 32 28 29 22 31 23 17 12 5 6 14 14 10 7 9 9 8 8 9 9 9 12 11 10 12 13 14 12 10 10
15 11 13 2 12 6 22 19 22 26 41 36 33 35 31 33 35 32 23 26 22 13 5 6 16 16 12 9 5 8 9 8 9 9 8 11 11 11 11 10 11 12 9 8
4 14 26 19 6 10 22 8 19 30 21 31 38 30 34 41 31 29 19 23 20 18 9 12 9 14 13 10 9 9 11 9 9 10 9 10 11 11 13 12 9 8 9 8
8 6 3 9 8 6 8 12 12 9 27 29 37 33 35 32 32 30 26 24 24 24 16 13 9 18 14 12 12 13 11 13 10 10 11 11 10 10 11 11 11 10 9 10
5 8 7 3 4 13 16 19 14 14 18 26 35 34 30 29 29 35 32 24 25 23 21 13 11 17 17 16 13 13 14 12 10 9 9 13 11 10 10 9 9 9 9 10
17 12 8 2 11 9 13 10 13 22 26 34 34 35 36 33 32 32 32 30 26 25 25 17 18 17 23 22 17 14 11 11 9 8 7 11 13 11 10 9 8 8 8 10
20 19 15 7 2 8 7 12 21 28 25 30 32 31 27 28 32 34 34 35 31 30 25 23 23 15 15 25 22 18 14 10 7 7 8 8 11 13 11 11 9 8 9 10
20 21 20 14 12 9 8 11 14 20 26 27 29 29 27 30 31 31 31 31 30 28 27 29 24 14 15 27 24 21 18 15 13 8 6 8 8 11 15 13 12 11 10 11
Wind_Direction
221 216 219 224 226 239 242 245 252 253 267 266 271 279 279 278 275 251 242 255 267 280 280 278 270 269 275 284 290 285 289 293 304 311 309 336 345 343 330 322 319 318 313 310
214 224 235 229 234 233 237 245 253 260 261 262 264 272 286 282 263 254 256 259 271 284 272 269 274 288 280 283 288 288 285 291 305 308 303 325 343 344 337 325 319 322 319 318
218 235 225 224 231 229 235 235 246 253 266 260 268 278 290 262 247 251 252 261 276 273 271 272 272 286 277 283 285 285 284 291 304 307 306 322 348 349 344 350 332 329 337 306
225 223 219 227 229 228 234 233 239 250 260 263 262 283 283 275 271 259 260 261 270 282 254 270 267 269 278 281 285 284 280 296 303 309 304 330 347 341 358 0 357 352 347 21
222 227 226 226 229 228 234 237 239 242 253 260 269 278 276 271 284 276 266 266 276 229 271 259 257 267 278 281 288 281 284 297 301 303 298 329 348 346 357 9 7 345 350 4
238 232 235 239 232 229 242 236 234 247 256 254 254 258 272 268 281 284 266 248 239 264 269 261 256 267 281 283 275 277 290 297 296 302 305 332 354 346 354 352 358 1 332 239
229 236 228 228 228 223 231 229 238 251 220 242 256 236 252 276 284 262 251 236 237 253 267 271 272 283 290 268 279 284 296 292 297 308 320 347 357 348 351 3 357 3 1 157
215 232 231 217 224 221 220 220 212 185 222 240 228 236 266 276 253 257 232 227 271 315 292 281 281 282 283 265 287 292 298 295 308 332 345 358 0 355 357 352 10 28 63 130
205 226 211 231 214 213 218 224 229 238 260 217 240 257 269 281 250 248 224 231 267 269 268 279 279 269 212 299 279 297 315 303 33 342 26 11 9 8 5 3 49 54 93 124
209 225 231 237 218 214 223 219 229 219 204 212 240 244 270 283 208 206 212 249 237 231 272 278 230 206 282 256 283 336 356 350 34 44 36 20 36 22 33 48 50 72 84 127
219 229 146 218 215 211 214 225 227 243 221 192 211 253 253 261 222 208 217 212 221 259 255 234 210 302 224 200 326 18 345 46 27 40 38 39 55 39 64 54 58 62 88 121
218 230 243 228 214 225 217 220 220 222 211 208 221 251 244 270 223 214 199 201 239 244 233 191 241 289 168 167 99 41 42 92 93 51 47 47 93 52 48 33 47 85 101 123
218 220 236 256 247 225 223 222 221 226 220 203 189 243 245 233 188 188 191 206 224 247 234 187 126 152 169 162 151 67 68 147 115 106 95 70 84 71 60 42 99 100 102 115
211 213 212 221 228 216 221 222 220 218 202 204 211 234 227 179 183 185 201 214 225 242 230 174 140 162 164 162 178 118 84 127 124 117 108 89 87 94 85 86 95 108 108 108
205 212 219 227 223 215 222 222 216 212 213 206 214 222 201 193 198 219 219 212 218 226 232 183 152 154 156 163 183 158 100 115 124 115 110 94 106 123 95 99 107 114 104 101
91 215 215 226 230 227 225 228 220 215 213 213 215 222 222 218 220 212 215 222 214 218 222 188 157 144 157 156 164 157 116 114 122 122 121 112 127 132 111 105 110 111 125 126
306 229 209 221 225 231 236 225 214 213 217 213 205 218 213 207 214 216 219 217 218 218 205 194 153 137 158 155 150 146 131 113 116 130 130 125 124 123 115 116 104 123 109 112
273 264 268 218 215 209 233 230 229 219 217 219 223 224 220 222 224 231 231 225 210 204 165 172 165 145 146 166 162 147 143 122 119 130 146 141 138 141 126 124 119 117 125 129
245 243 253 208 205 220 225 218 217 210 208 215 220 222 223 230 228 226 226 219 212 198 154 145 168 147 144 141 171 166 156 139 132 134 155 148 149 153 149 133 129 125 122 130
193 219 222 310 166 189 201 220 209 212 221 214 222 224 219 220 225 222 213 206 205 188 196 165 175 166 174 191 199 183 172 154 143 142 161 152 155 158 162 159 146 139 134 132
43 218 224 243 249 131 189 176 185 198 228 224 222 221 216 215 223 221 200 197 207 201 210 164 173 170 160 190 208 199 184 166 158 161 168 157 156 161 166 166 164 157 148 151
324 332 161 222 209 84 173 181 168 193 193 215 216 217 220 220 219 213 214 204 199 205 191 187 171 174 171 182 198 189 171 185 175 167 179 166 155 158 165 169 171 173 161 158
232 353 323 54 101 81 61 100 131 174 181 202 192 194 214 206 205 212 215 217 212 219 202 199 203 184 173 158 168 182 174 189 188 171 179 181 165 156 160 166 171 169 171 163
350 352 13 152 168 153 78 118 136 165 172 182 193 193 208 212 216 213 215 212 211 215 202 203 199 186 185 170 164 164 171 177 182 168 180 185 175 165 164 169 165 162 165 165
316 337 339 360 230 162 145 160 146 155 159 168 173 176 182 200 214 217 221 221 215 211 209 211 215 188 181 188 178 180 185 189 168 165 175 181 175 178 173 178 181 180 173 173
306 308 330 314 327 287 215 173 162 162 168 162 174 172 186 201 207 216 214 208 205 208 208 205 212 205 184 191 186 187 198 207 223 218 197 183 178 177 187 192 194 200 202 198
Height
3092 3092 3086 3091 3095 3100 3104 3105 3103 3101 3099 3110 3107 3105 3098 3099 3100 3100 3102 3104 3104 3103 3104 3104 3103 3103 3103 3102 3100 3097 3094 3092 3089 3085 3082 3079 3075 3071 3066 3062 3058 3056 3053 3051
3084 3069 3080 3090 3094 3095 3098 3099 3099 3097 3096 3105 3101 3098 3094 3092 3094 3095 3097 3098 3098 3098 3099 3100 3100 3101 3100 3098 3095 3093 3091 3089 3085 3082 3079 3077 3073 3068 3064 3059 3056 3054 3051 3049
3063 3067 3078 3083 3086 3089 3089 3093 3093 3096 3093 3097 3097 3092 3090 3088 3089 3091 3092 3093 3094 3093 3093 3095 3096 3096 3096 3094 3091 3089 3088 3085 3082 3079 3076 3074 3070 3065 3061 3056 3053 3051 3049 3046
3060 3067 3071 3073 3076 3082 3081 3087 3090 3094 3094 3092 3092 3087 3086 3086 3086 3087 3088 3089 3088 3087 3089 3091 3091 3091 3090 3089 3087 3086 3084 3082 3078 3075 3074 3072 3069 3066 3060 3055 3052 3050 3048 3045
3040 3053 3061 3064 3064 3074 3072 3083 3086 3087 3089 3090 3083 3087 3078 3081 3079 3080 3081 3083 3082 3083 3085 3085 3086 3087 3087 3085 3083 3082 3081 3078 3075 3073 3072 3071 3068 3064 3059 3056 3052 3049 3047 3046
3044 3050 3055 3057 3064 3069 3073 3080 3082 3085 3086 3084 3082 3085 3069 3075 3075 3075 3076 3077 3078 3079 3080 3081 3083 3084 3083 3081 3080 3080 3078 3074 3072 3071 3071 3070 3066 3064 3059 3055 3052 3048 3046 3045
3043 3042 3050 3053 3056 3064 3069 3075 3080 3082 3081 3070 3076 3076 3068 3069 3071 3072 3073 3074 3075 3076 3078 3079 3080 3080 3079 3078 3078 3077 3074 3072 3070 3070 3070 3068 3066 3063 3058 3054 3051 3048 3045 3045
3032 3035 3035 3039 3045 3052 3058 3066 3068 3074 3073 3069 3071 3067 3064 3065 3067 3069 3069 3073 3073 3075 3076 3076 3077 3077 3076 3076 3075 3074 3072 3069 3069 3069 3069 3067 3065 3062 3058 3054 3051 3048 3046 3047
3022 3024 3028 3031 3041 3048 3049 3053 3063 3067 3066 3063 3062 3062 3061 3059 3062 3064 3067 3069 3071 3073 3073 3073 3074 3074 3074 3073 3072 3071 3070 3068 3068 3068 3067 3066 3065 3062 3058 3054 3052 3050 3049 3050
3019 3020 3021 3028 3037 3038 3037 3053 3060 3059 3064 3063 3056 3056 3056 3057 3058 3061 3064 3066 3068 3070 3070 3070 3071 3072 3072 3071 3070 3069 3068 3067 3067 3067 3067 3066 3065 3062 3059 3056 3055 3053 3051 3052
3014 3017 3018 3023 3016 3019 3035 3042 3050 3051 3049 3052 3059 3050 3052 3057 3056 3058 3061 3064 3066 3067 3068 3069 3069 3070 3069 3069 3068 3068 3067 3066 3067 3067 3067 3066 3065 3064 3061 3059 3058 3057 3054 3054
3002 3012 3015 3004 3014 3023 3030 3032 3038 3039 3041 3042 3046 3043 3050 3050 3053 3057 3060 3063 3065 3066 3066 3067 3068 3068 3067 3067 3067 3067 3067 3066 3067 3067 3067 3066 3066 3064 3063 3060 3059 3058 3057 3057
3000 3001 3008 3004 3011 3014 3015 3021 3028 3032 3036 3035 3042 3041 3047 3046 3051 3055 3057 3061 3063 3064 3064 3065 3065 3066 3066 3066 3067 3067 3067 3067 3067 3067 3067 3067 3068 3066 3065 3062 3061 3061 3061 3061
2984 2989 2991 2991 2994 3003 3007 3013 3019 3024 3026 3029 3033 3039 3044 3045 3048 3052 3055 3058 3060 3061 3062 3063 3064 3065 3065 3065 3066 3067 3067 3067 3067 3068 3068 3068 3069 3068 3067 3066 3066 3065 3066 3067
2976 2980 2984 2985 2993 2998 3002 3005 3009 3014 3018 3022 3030 3036 3042 3044 3047 3049 3052 3056 3058 3059 3060 3061 3062 3063 3064 3065 3066 3067 3067 3067 3067 3068 3068 3069 3070 3070 3070 3069 3070 3071 3072 3073
2971 2972 2981 2983 2987 2992 2995 2999 3004 3010 3014 3019 3027 3031 3037 3041 3045 3047 3050 3053 3055 3058 3058 3060 3061 3062 3063 3064 3066 3067 3067 3067 3067 3068 3069 3070 3071 3072 3072 3073 3074 3075 3075 3077
2972 2971 2974 2974 2981 2986 2990 2989 2996 3001 3007 3014 3020 3024 3033 3035 3040 3044 3047 3049 3052 3056 3057 3058 3059 3060 3062 3064 3065 3067 3067 3067 3067 3068 3070 3071 3072 3074 3075 3076 3078 3079 3079 3080
2968 2970 2969 2969 2979 2979 2975 2985 2991 2995 3000 3008 3015 3020 3027 3033 3037 3040 3043 3046 3049 3054 3054 3056 3057 3058 3061 3063 3065 3066 3067 3068 3068 3069 3071 3072 3073 3076 3077 3079 3080 3082 3083 3084
2962 2967 2967 2966 2968 2972 2975 2979 2983 2987 2994 3002 3009 3017 3022 3028 3032 3034 3039 3044 3047 3050 3052 3053 3055 3057 3060 3062 3063 3065 3067 3068 3069 3070 3072 3073 3074 3076 3078 3081 3083 3084 3085 3086
2958 2963 2967 2961 2965 2969 2975 2980 2984 2990 2991 2999 3006 3011 3017 3021 3022 3028 3034 3040 3045 3048 3050 3051 3053 3056 3059 3061 3063 3064 3066 3068 3070 3071 3073 3073 3075 3077 3079 3081 3084 3086 3086 3088
2958 2960 2959 2961 2962 2965 2971 2972 2978 2982 2994 2996 3002 3006 3011 3013 3019 3027 3031 3036 3041 3045 3047 3050 3052 3054 3057 3059 3061 3063 3065 3067 3069 3071 3073 3074 3075 3077 3079 3081 3083 3086 3088 3089
2957 2957 2957 2958 2958 2963 2964 2970 2974 2981 2982 2986 2996 3002 3006 3012 3017 3022 3026 3031 3035 3039 3044 3048 3050 3052 3054 3057 3059 3061 3063 3066 3068 3071 3073 3074 3076 3078 3080 3081 3083 3085 3087 3089
2960 2959 2956 2958 2961 2963 2965 2967 2971 2973 2975 2979 2983 2994 3002 3007 3012 3016 3021 3026 3030 3034 3039 3044 3047 3050 3052 3054 3057 3060 3062 3065 3067 3070 3072 3074 3076 3078 3080 3082 3083 3085 3087 3089
2955 2958 2956 2955 2959 2962 2963 2966 2969 2969 2972 2974 2979 2987 2996 3002 3007 3012 3016 3021 3026 3031 3035 3040 3044 3047 3049 3052 3056 3059 3062 3064 3066 3068 3070 3072 3075 3077 3080 3082 3084 3085 3088 3089
2954 2955 2953 2952 2954 2959 2960 2964 2964 2967 2969 2969 2974 2982 2990 2998 3002 3007 3011 3015 3021 3027 3031 3037 3040 3043 3045 3050 3053 3057 3060 3063 3065 3067 3069 3070 3072 3076 3079 3081 3083 3085 3087 3089
2949 2948 2950 2953 2955 2954 2956 2955 2958 2962 2965 2966 2972 2977 2985 2991 2998 3002 3007 3011 3016 3022 3027 3032 3037 3040 3043 3046 3050 3054 3058 3061 3063 3065 3067 3069 3071 3074 3076 3079 3082 3084 3086 3088